Lid_Strength_Index
2 1 2 1 1 1 1 1 1 2 2 2 1 2 2 2 1 2 2 2 2 2 1 2 2 2 2 2 1 2 3 3 4 3 2 1 1 0 0 0 1 2 1
2 2 2 1 1 1 1 1 1 2 2 2 1 2 3 1 1 1 2 1 2 2 2 2 2 1 2 2 2 2 2 3 3 4 2 1 1 0 1 1 1 2 3
2 2 2 2 2 1 1 1 1 2 2 2 2 3 2 1 1 1 1 1 1 2 2 3 2 2 2 2 2 2 2 2 2 3 3 2 1 1 2 2 3 3 3
2 2 2 2 1 1 1 1 1 1 2 2 2 1 1 1 1 1 1 2 2 2 3 1 1 1 2 2 2 2 2 3 3 3 3 3 2 2 2 3 4 3 4
2 2 2 2 1 1 1 1 1 1 1 1 2 2 1 1 1 1 1 1 2 2 1 1 2 2 2 2 2 2 2 3 3 3 4 4 4 2 3 2 3 5 5
2 2 2 2 1 1 1 1 2 2 2 2 1 1 2 1 2 3 2 2 2 2 2 2 3 3 3 4 3 4 3 3 4 4 4 4 4 3 2 2 4 6 6
3 3 2 2 2 2 2 2 2 2 2 2 2 2 2 1 5 4 3 2 2 2 2 3 3 3 4 5 5 5 5 5 3 2 3 3 4 2 2 2 4 4 5
3 3 3 3 3 2 2 2 3 1 1 2 1 1 2 3 6 6 4 2 2 2 2 2 1 4 5 5 6 7 7 7 6 5 5 5 5 4 2 1 2 6 7
4 4 4 3 3 3 2 2 2 4 2 1 1 1 2 4 7 6 5 2 3 3 3 2 2 3 5 6 7 7 8 7 6 5 4 4 3 3 2 3 5 6 6
4 4 3 3 3 3 3 2 2 2 3 1 2 2 4 4 6 7 6 3 4 5 5 5 5 4 7 7 6 7 7 7 6 6 5 4 4 3 2 1 3 4 6
4 3 3 2 2 2 3 3 2 2 2 2 2 2 3 4 5 6 7 2 4 4 4 5 6 8 8 8 7 6 6 7 6 6 6 6 5 4 4 3 2 3 4
2 2 2 3 3 4 3 3 3 2 2 3 3 5 4 5 6 7 7 6 5 4 4 5 8 9 9 9 6 8 7 6 7 7 6 6 6 6 5 5 4 5 4
4 4 5 4 5 5 4 4 5 5 5 6 6 6 6 6 5 7 8 7 6 6 6 8 10 11 10 8 8 7 7 7 8 7 7 8 8 7 7 6 5 5 5
4 5 6 7 7 7 5 5 5 5 6 6 7 7 7 7 7 7 7 7 7 7 7 7 7 7 8 7 7 7 7 7 8 9 9 9 8 8 7 7 7 6 5
5 5 5 6 7 9 11 11 7 8 6 5 6 6 6 7 8 9 8 6 6 8 7 7 7 7 7 8 7 8 8 9 9 9 9 8 7 6 7 6 7 6 5
5 5 5 5 5 5 6 7 10 12 12 12 11 8 9 11 12 13 13 12 11 9 7 7 7 7 8 8 9 10 10 9 9 7 8 9 6 5 6 6 6 6 6
5 5 5 5 5 5 6 6 6 8 12 14 14 13 12 13 13 14 13 13 12 9 7 8 8 9 10 10 10 10 10 9 8 8 7 7 6 5 5 6 6 6 7
3 6 4 4 6 7 6 7 7 7 7 8 12 13 15 14 13 14 13 10 7 7 7 8 9 9 9 9 8 7 7 6 5 5 6 6 6 6 5 6 6 7 7
3 4 5 5 6 6 6 6 7 8 9 9 10 12 13 15 14 14 12 7 7 8 8 7 7 6 6 5 6 7 5 5 6 6 7 6 6 6 6 6 7 7 7
2 3 4 4 4 6 5 5 6 8 9 9 9 9 9 9 7 6 6 5 5 4 5 5 4 5 5 4 5 5 6 6 6 6 6 6 6 6 7 7 7 7 7
3 3 3 3 3 4 5 4 4 5 5 6 6 6 8 6 5 4 4 4 4 3 4 5 6 5 5 5 5 6 6 6 5 5 6 6 6 6 7 8 8 8 7
3 4 3 3 3 3 4 4 4 4 5 5 5 5 8 5 4 4 3 3 3 2 4 5 6 5 5 5 6 6 5 5 5 5 6 6 7 7 7 8 8 8 8
3 4 4 5 4 4 4 4 5 4 4 4 4 4 5 5 4 4 3 3 3 4 5 5 5 6 5 5 5 5 5 5 5 6 6 6 6 7 7 8 8 8 9
3 4 6 5 5 5 5 4 5 6 4 3 3 3 4 5 4 4 4 3 4 4 4 4 5 5 5 5 5 5 4 4 4 5 5 6 6 7 7 8 8 8 8
3 5 6 6 6 6 6 4 3 4 4 3 3 3 3 4 4 4 4 3 3 4 4 4 4 4 4 5 4 4 6 10 5 7 5 5 6 7 6 8 8 8 8
3 4 4 6 7 6 6 5 3 3 4 4 3 3 3 3 4 4 4 3 3 3 3 4 4 4 4 3 4 6 11 13 8 10 4 5 6 6 6 8 7 8 8